map of BRC home
Great Circle Mapper logo
BRC - Airport
Location
City:  San Carlos de Bariloche, Río Negro, Argentina
ICAO / IATA:SAZS / BRC

Details
Type:Airport (Aerodrome, Airfield)
Use:Public/Civil
Latitude:41°09'04"S (-41.151171)
Longitude:71°09'27"W (-71.157541)
Datum:WGS 1984
Elevation:2776 ft (846 m)
Variation:6.95°E (WMM2015 magnetic declination)
-0.12° annual change
Runways:1
Longest:7703 × 157 ft (2348 × 48 m), paved

Time
Time Zone:UTC-3
Local Time:

Weather
METAR:SAZS 020000Z 29015KT 8000 -RA SCT035 SCT060 05/02 Q1013
TAF:SAZS 012300Z 0200/0224 30015KT 9000 -RADZ SCT012 SCT030 BKN050 TX07/0119Z TNM01/0211Z
BECMG 0202/0204 4000 SN BKN015 OVC035

Related Locations
Nearby:
Farthest:RLK: 12381 mi / 19925 km
Bayannur [Bayannur Tianjitai Airport], Inner Mongolia, CN

Find:

   beyond  
but within

Other Information
Maps:
NOTAMs:
Links:
Sources:

  
flag of Argentina   

Sectional Chart

Flight Planning
at skyvector.com

Satellite Image

Google Maps Satellite view

 

Copyright © 2004-2015 Karl L. Swartz. All rights reserved.
The Great Circle Mapper name and logo are trademarks of the Great Circle Mapper.
All other trademarks mentioned herein belong to their respective owners.
Please see credits for attibutions and further copyright information.

  Follow gcmap on Facebook Follow gcmap on Twitter Follow gcmap on Google+

hCard Microformat

Geo Microformat